Weather History for Burlington, WI

Change the Weather History Date:

Thursday, October 4, 2012

  Actual Average (KENW) Record (KENW)
Temperature  
Mean Temperature 58 °F -  
Max Temperature 73 °F 64 °F 86 °F (1967)
Min Temperature 44 °F 46 °F 28 °F (2004)
Degree Days  
Heating Degree Days 6    
Growing Degree Days 8 (Base 50)    
Moisture  
Dew Point 47 °F    
Average Humidity 74    
Maximum Humidity 100    
Minimum Humidity 46    
Precipitation  
Precipitation 0.00 in - - ()
Sea Level Pressure  
Sea Level Pressure 30.01 in    
Wind  
Wind Speed 6 mph (SW)    
Max Wind Speed 20 mph    
Max Gust Speed 26 mph    
Visibility 8 miles    
Events Fog , Rain    
Averages and records for this station are not official NWS values.
T = Trace of Precipitation, MM = Missing Value Source: NWS Daily Summary

Daily Weather History Graph

Daily Weather History Graph

Search for Another Location

Airport:

Trip Planner

Search our weather history database for the weather conditions in past years. The results will help you decide how hot, cold, wet, or windy it might be!

Date:

Astronomy

Oct. 04, 2012 Rise Set
Actual Time 6:54 AM CDT 6:28 PM CDT
Civil Twilight 6:26 AM CDT 6:56 PM CDT
Nautical Twilight 5:53 AM CDT 7:29 PM CDT
Astronomical Twilight 5:20 AM CDT 8:02 PM CDT
Moon 8:57 PM CDT (10/4) 11:17 AM CDT (10/4)
Length of Visible Light 12h 30m
Length of Day
11h 34m
Waning Gibbous, 82% of the Moon is Illuminated
Oct 4
Waning Gibbous
Oct 8
Last Quarter
Oct 15
New
Oct 21
First Quarter
Oct 29
Full

Hourly Weather History & Observations

Time (CDT) Temp. Windchill Dew Point Humidity Pressure Visibility Wind Dir Wind Speed Gust Speed Precip Events Conditions
12:15 AM 55.4 °F - 53.6 °F 94% 30.01 in 5.0 mi South 3.5 mph - N/A   Overcast
12:35 AM 55.4 °F - 53.6 °F 94% 30.01 in 5.0 mi SSW 4.6 mph - N/A Rain Rain
12:55 AM 55.4 °F - 53.6 °F 94% 30.02 in 5.0 mi Calm Calm - N/A   Overcast
1:15 AM 55.4 °F - 53.6 °F 94% 30.02 in 5.0 mi Calm Calm - N/A   Overcast
1:35 AM 55.4 °F - 53.6 °F 94% 30.02 in 5.0 mi Calm Calm - N/A   Overcast
1:55 AM 53.6 °F - 53.6 °F 100% 30.02 in 5.0 mi Calm Calm - N/A   Scattered Clouds
2:15 AM 51.8 °F - 51.8 °F 100% 30.01 in 5.0 mi Calm Calm - N/A   Clear
2:35 AM 50.0 °F - 50.0 °F 100% 30.01 in 1.0 mi Calm Calm - N/A   Mist
2:55 AM 50.0 °F - 50.0 °F 100% 30.00 in 0.5 mi Calm Calm - N/A Fog Fog
3:15 AM 46.4 °F - 46.4 °F 100% 30.00 in 0.5 mi Calm Calm - N/A Fog Fog
3:35 AM 46.4 °F 45.2 °F 46.4 °F 100% 30.00 in 1.0 mi SSW 3.5 mph - N/A   Mist
3:55 AM 46.4 °F 45.2 °F 46.4 °F 100% 30.01 in 1.8 mi SSW 3.5 mph - N/A   Mist
4:15 AM 46.4 °F 44.3 °F 46.4 °F 100% 30.00 in 3.0 mi South 4.6 mph - N/A   Clear
4:35 AM 46.4 °F 44.3 °F 46.4 °F 100% 30.01 in 5.0 mi SSW 4.6 mph - N/A   Mostly Cloudy
4:55 AM 48.2 °F - 48.2 °F 100% 30.00 in 7.0 mi South 4.6 mph - N/A   Overcast
5:15 AM 50.0 °F - 50.0 °F 100% 30.00 in 7.0 mi SSW 4.6 mph - N/A   Mostly Cloudy
5:35 AM 50.0 °F - 50.0 °F 100% 30.00 in 7.0 mi SSW 3.5 mph - N/A   Scattered Clouds
5:55 AM 50.0 °F - 50.0 °F 100% 30.00 in 10.0 mi SSW 5.8 mph - N/A   Clear
6:15 AM 50.0 °F - 50.0 °F 100% 30.00 in 10.0 mi SSW 5.8 mph - N/A   Clear
6:35 AM 50.0 °F - 50.0 °F 100% 30.00 in 10.0 mi SSW 6.9 mph - N/A   Clear
6:55 AM 50.0 °F - 50.0 °F 100% 30.00 in 10.0 mi South 4.6 mph - N/A   Clear
7:15 AM 51.8 °F - 50.0 °F 94% 30.00 in 10.0 mi South 5.8 mph - N/A   Clear
7:35 AM 51.8 °F - 50.0 °F 94% 30.00 in 10.0 mi SSW 6.9 mph - N/A   Clear
7:55 AM 51.8 °F - 50.0 °F 94% 30.00 in 10.0 mi SSW 8.1 mph - N/A   Clear
8:15 AM 53.6 °F - 50.0 °F 88% 30.00 in 10.0 mi SSW 5.8 mph - N/A   Clear
8:35 AM 55.4 °F - 50.0 °F 82% 30.00 in 10.0 mi SSW 8.1 mph - N/A   Clear
8:55 AM 59.0 °F - 51.8 °F 77% 29.99 in 10.0 mi SSW 6.9 mph - N/A   Clear
9:15 AM 60.8 °F - 51.8 °F 72% 29.99 in 10.0 mi SSW 9.2 mph - N/A   Clear
9:55 AM 64.4 °F - 51.8 °F 64% 29.99 in 10.0 mi SSW 8.1 mph - N/A   Clear
10:15 AM 68.0 °F - 51.8 °F 56% 29.98 in 10.0 mi SSW 10.4 mph 16.1 mph N/A   Clear
10:55 AM 71.6 °F - 50.0 °F 46% 29.98 in 10.0 mi SW 18.4 mph 23.0 mph N/A   Clear
11:15 AM 69.8 °F - 50.0 °F 49% 29.97 in 10.0 mi SSW 17.3 mph 24.2 mph N/A   Clear
11:35 AM 71.6 °F - 51.8 °F 50% 29.96 in 10.0 mi SSW 11.5 mph 21.9 mph N/A   Clear
11:55 AM 73.4 °F - 51.8 °F 47% 29.95 in 10.0 mi SSW 15.0 mph 21.9 mph N/A   Clear
12:15 PM 73.4 °F - 51.8 °F 47% 29.94 in 10.0 mi SW 10.4 mph 20.7 mph N/A   Clear
12:35 PM 73.4 °F - 51.8 °F 47% 29.93 in 10.0 mi SSW 11.5 mph 20.7 mph N/A   Clear
12:55 PM 71.6 °F - 51.8 °F 50% 29.93 in 10.0 mi South 13.8 mph 23.0 mph N/A   Clear
1:15 PM 71.6 °F - 51.8 °F 50% 29.95 in 10.0 mi SW 19.6 mph 25.3 mph N/A   Scattered Clouds
1:35 PM 71.6 °F - 51.8 °F 50% 29.96 in 10.0 mi WSW 18.4 mph 26.5 mph N/A   Scattered Clouds
1:55 PM 69.8 °F - 50.0 °F 49% 29.96 in 10.0 mi WSW 17.3 mph 24.2 mph N/A   Scattered Clouds
2:15 PM 68.0 °F - 50.0 °F 52% 29.96 in 10.0 mi WSW 16.1 mph 23.0 mph N/A Rain Light Rain
2:35 PM 64.4 °F - 53.6 °F 68% 29.97 in 10.0 mi West 15.0 mph 23.0 mph N/A   Mostly Cloudy
2:55 PM 60.8 °F - 51.8 °F 72% 29.99 in 10.0 mi West 13.8 mph 21.9 mph N/A   Mostly Cloudy
3:15 PM 59.0 °F - 48.2 °F 67% 29.99 in 10.0 mi WSW 10.4 mph 18.4 mph N/A   Mostly Cloudy
3:35 PM 60.8 °F - 48.2 °F 63% 29.99 in 10.0 mi WSW 9.2 mph 16.1 mph N/A   Scattered Clouds
3:55 PM 60.8 °F - 46.4 °F 59% 29.99 in 10.0 mi West 15.0 mph 19.6 mph N/A   Clear
4:15 PM 59.0 °F - 44.6 °F 59% 30.01 in 10.0 mi WSW 18.4 mph 26.5 mph N/A   Clear
4:35 PM 55.4 °F - 44.6 °F 67% 30.02 in 10.0 mi WSW 9.2 mph 21.9 mph N/A   Mostly Cloudy
4:55 PM 55.4 °F - 42.8 °F 63% 30.02 in 10.0 mi West 9.2 mph 24.2 mph N/A   Scattered Clouds
5:15 PM 53.6 °F - 42.8 °F 67% 30.02 in 10.0 mi West 12.7 mph 17.3 mph N/A   Mostly Cloudy
5:35 PM 53.6 °F - 42.8 °F 67% 30.03 in 10.0 mi West 12.7 mph 19.6 mph N/A   Mostly Cloudy
5:55 PM 53.6 °F - 42.8 °F 67% 30.03 in 10.0 mi WSW 11.5 mph 18.4 mph N/A   Mostly Cloudy
6:15 PM 53.6 °F - 42.8 °F 67% 30.02 in 10.0 mi WSW 10.4 mph - N/A   Scattered Clouds
6:35 PM 53.6 °F - 42.8 °F 67% 30.03 in 10.0 mi WSW 8.1 mph - N/A   Mostly Cloudy
6:55 PM 53.6 °F - 42.8 °F 67% 30.03 in 10.0 mi WSW 11.5 mph 16.1 mph N/A   Overcast
7:15 PM 53.6 °F - 42.8 °F 67% 30.03 in 10.0 mi WSW 9.2 mph - N/A   Overcast
7:35 PM 53.6 °F - 42.8 °F 67% 30.03 in 10.0 mi WSW 9.2 mph 16.1 mph N/A   Overcast
7:55 PM 53.6 °F - 42.8 °F 67% 30.04 in 10.0 mi WSW 9.2 mph - N/A   Overcast
8:15 PM 53.6 °F - 41.0 °F 62% 30.05 in 10.0 mi WSW 10.4 mph - N/A   Overcast
8:35 PM 51.8 °F - 41.0 °F 67% 30.05 in 10.0 mi West 10.4 mph - N/A   Mostly Cloudy
9:15 PM 50.0 °F - 37.4 °F 62% 30.06 in 10.0 mi WSW 5.8 mph - N/A   Clear
9:35 PM 50.0 °F - 35.6 °F 58% 30.06 in 10.0 mi West 9.2 mph 17.3 mph N/A   Clear
9:55 PM 50.0 °F - 35.6 °F 58% 30.07 in 10.0 mi West 10.4 mph - N/A   Clear
10:15 PM 48.2 °F - 33.8 °F 58% 30.08 in 10.0 mi West 9.2 mph - N/A   Clear
10:35 PM 46.4 °F 42.9 °F 33.8 °F 62% 30.08 in 10.0 mi West 6.9 mph - N/A   Clear
10:55 PM 46.4 °F 41.9 °F 33.8 °F 62% 30.08 in 10.0 mi West 9.2 mph - N/A   Clear
11:15 PM 44.6 °F 40.2 °F 33.8 °F 66% 30.09 in 10.0 mi West 8.1 mph - N/A   Clear
11:35 PM 44.6 °F 39.7 °F 33.8 °F 66% 30.10 in 10.0 mi West 9.2 mph - N/A   Clear
11:55 PM 44.6 °F 40.7 °F 33.8 °F 66% 30.10 in 10.0 mi West 6.9 mph - N/A   Clear